logo tempoitalia

Diretta Meteo Sydney, Australialunedì 31 agosto ore 14:30

Mappa
Sereno 22 °C Sereno 24 Ore: T.min 11 T.max 22
Ponente Est Km/h 16.7 Punto di rugiada: 11 °C Umidità: 49% Visibilità: 10 Km
Il sole sorge alle: 06:15 Il sole tramonta alle: 17:36
31 Agosto 2026 14:30 tempo osservato: Sereno Sereno 22 49 1028 vento: Nord E 16.7
31 Agosto 2026 14:00 tempo osservato: Sereno Sereno 21 52 1028 vento: Nord E 16.7
31 Agosto 2026 13:30 tempo osservato: Sereno Sereno 21 52 1029 vento: Nord E 18.5
31 Agosto 2026 13:00 tempo osservato: Sereno Sereno 22 49 1029 vento: Nord E 18.5
31 Agosto 2026 12:30 tempo osservato: Sereno Sereno 22 35 1029 vento: Nord E 11.1
31 Agosto 2026 12:00 tempo osservato: Sereno Sereno 22 35 1030 vento: Nord E/SE 11.1
31 Agosto 2026 11:30 tempo osservato: Sereno Sereno 21 37 1030 vento: Nord N/NE 9.3
31 Agosto 2026 11:00 tempo osservato: Sereno Sereno 21 40 1031 vento: Nord N 9.3
31 Agosto 2026 10:30 tempo osservato: Sereno Sereno 20 52 1031 vento: Nord NO 11.1
31 Agosto 2026 10:00 tempo osservato: Sereno Sereno 19 52 1031 vento: Nord NO 9.3
31 Agosto 2026 09:30 tempo osservato: Sereno Sereno 18 63 1031 vento: Nord NO 9.3
31 Agosto 2026 09:00 tempo osservato: Sereno Sereno 17 63 1031 vento: Nord NO 11.1
31 Agosto 2026 08:30 tempo osservato: Sereno Sereno 15 67 1031 vento: Nord NO 11.1
31 Agosto 2026 08:00 tempo osservato: Sereno Sereno 14 67 1031 vento: Nord N/NO 11.1
31 Agosto 2026 07:30 tempo osservato: Sereno Sereno 13 76 1031 vento: Nord N/NO 13
31 Agosto 2026 07:00 tempo osservato: Sereno Sereno 12 76 1030 vento: Nord N/NO 14.8
31 Agosto 2026 06:30 tempo osservato: Poco Nuvoloso Poco Nuvoloso 11 81 1030 vento: Nord NO 13
31 Agosto 2026 06:00 tempo osservato: Poco Nuvoloso Poco Nuvoloso 11 81 1030 vento: Nord N/NO 11.1
31 Agosto 2026 05:30 tempo osservato: Sereno Sereno 11 81 1030 vento: Nord N/NO 11.1
31 Agosto 2026 05:00 tempo osservato: Sereno Sereno 11 87 1029 vento: Nord NO 9.3
31 Agosto 2026 04:30 tempo osservato: Sereno Sereno 11 87 1029 vento: Nord NO 11.1
31 Agosto 2026 04:00 tempo osservato: Sereno Sereno 12 87 1029 vento: Nord N/NO 13
31 Agosto 2026 03:30 tempo osservato: Sereno Sereno 12 87 1030 vento: Nord N/NO 11.1
31 Agosto 2026 03:00 tempo osservato: Sereno Sereno 12 93 1030 vento: Nord N 11.1
31 Agosto 2026 02:30 tempo osservato: Sereno Sereno 12 93 1030 vento: Nord SO 9.3
31 Agosto 2026 02:00 tempo osservato: Sereno Sereno 12 93 1030 vento: Nord O/SO 9.3
31 Agosto 2026 01:30 tempo osservato: Sereno Sereno 13 87 1030 vento: Nord SO 9.3
31 Agosto 2026 01:00 tempo osservato: Sereno Sereno 13 87 1030 vento: Nord SO 9.3
31 Agosto 2026 00:30 tempo osservato: Sereno Sereno 13 93 1030 vento: Nord N 5.5
31 Agosto 2026 00:00 tempo osservato: Sereno Sereno 14 87 1030 vento: Nord S/SE 9.3
30 Agosto 2026 23:30 tempo osservato: Sereno Sereno 14 93 1031 vento: Nord S 11.1
30 Agosto 2026 23:00 tempo osservato: Sereno Sereno 15 87 1031 vento: Nord S/SE 13
30 Agosto 2026 22:30 tempo osservato: Sereno Sereno 15 87 1031 vento: Nord S 13
30 Agosto 2026 22:00 tempo osservato: Sereno Sereno 14 82 1030 vento: Nord N 5.5
30 Agosto 2026 21:30 tempo osservato: Sereno Sereno 14 82 1030 vento: Nord O 7.4
30 Agosto 2026 21:00 tempo osservato: Sereno Sereno 14 82 1030 vento: Nord O/SO 9.3
30 Agosto 2026 20:30 tempo osservato: Sereno Sereno 15 76 1030 vento: Nord N 0
30 Agosto 2026 20:00 tempo osservato: Sereno Sereno 15 76 1030 vento: Nord N 5.5
30 Agosto 2026 19:30 tempo osservato: Sereno Sereno 16 67 1029 vento: Nord N 5.5
30 Agosto 2026 19:00 tempo osservato: Sereno Sereno 17 67 1029 vento: Nord NE 7.4
30 Agosto 2026 18:30 tempo osservato: Sereno Sereno 17 63 1029 vento: Nord E/NE 11.1
30 Agosto 2026 18:00 tempo osservato: Sereno Sereno 17 63 1029 vento: Nord E/NE 11.1
30 Agosto 2026 17:30 tempo osservato: Sereno Sereno 18 55 1029 vento: Nord E 13
30 Agosto 2026 17:00 tempo osservato: Sereno Sereno 19 45 1028 vento: Nord E/NE 11.1
30 Agosto 2026 16:30 tempo osservato: Sereno Sereno 19 48 1028 vento: Nord E 11.1
30 Agosto 2026 16:00 tempo osservato: Sereno Sereno 20 45 1028 vento: Nord E 13
30 Agosto 2026 15:30 tempo osservato: Sereno Sereno 19 55 1028 vento: Nord SE 13
30 Agosto 2026 15:00 tempo osservato: Sereno Sereno 20 49 1029 vento: Nord S/SE 13